Tracking 35280 objects as of 7-Sep-2026
HD Live streaming from Space Station
objects crossing your sky now

SALYUT 7 DEB


SALYUT 7 DEB is no longer on orbit


NORAD ID: 15210
Int'l Code: 1982-033CR
Launch date: April 19, 1982
Source: Commonwealth of Independent States (former USSR) (CIS)
Launch site: TYURATAM MISSILE AND SPACE COMPLEX (TTMTR)
Decay date: 1984-09-15

Note: This is SATELLITE DEBRIS
Your satellite tracking list
Your tracking list is empty




NASA's NSSDC Master Catalog

Two Line Element Set (TLE):
1 15210U 82033 CR 84259.46969550  .17424998 +55286-4 +22732-2 0  9999
2 15210 051.5902 260.7491 0002941 268.8671 091.6383 16.34871218139257
Source of the keplerian elements: AFSPC